Norfolk, NE

9:24 PM CDT on May 20, 2018 (GMT -0500)
Stefan Memorial

Weather History for KOFK - February, 2014

Change the Weather History Date:

Thursday, February 6, 2014

  Actual Average Record
Temperature  
Mean Temperature -1 °F 24 °F  
Max Temperature 8 °F 35 °F 58 °F (1957)
Min Temperature -10 °F 14 °F -25 °F (1905)
Degree Days  
Heating Degree Days 66 41  
Month to date heating degree days 332 246  
Since 1 July heating degree days 4428 4268  
Cooling Degree Days 0 0  
Month to date cooling degree days 0 0  
Year to date cooling degree days 0 0  
Moisture  
Dew Point -10 °F    
Average Humidity 68    
Maximum Humidity 79    
Minimum Humidity 56    
Precipitation  
Precipitation T in 0.03 in 0.60 in (1921)
Month to date precipitation 0.06 0.15  
Year to date precipitation 0.20 0.74  
Snow  
Snow T in 0.20 in - ()
Month to date snowfall 1.7 1.3  
Since 1 July snowfall 6.2 18.6  
Snow Depth 1.00 in    
Sea Level Pressure  
Sea Level Pressure 30.56 in    
Wind  
Wind Speed 10 mph (West)    
Max Wind Speed 17 mph    
Max Gust Speed 22 mph    
Visibility 10 miles    
Events Snow    
T = Trace of Precipitation, MM = Missing Value Source: NWS Daily Summary

Daily Weather History Graph

Daily Weather History Graph

Search for Another Location

Airport or City:

Astronomy

Feb. 06, 2014 Rise Set
Actual Time 7:36 AM CST 5:51 PM CST
Civil Twilight 7:07 AM CST 6:20 PM CST
Nautical Twilight 6:34 AM CST 6:53 PM CST
Astronomical Twilight 6:02 AM CST 7:26 PM CST
Moon 11:23 AM CST (2/6) 12:54 AM CST (2/6)
Length of Visible Light 11h 12m
Length of Day
10h 14m
Waxing Crescent, 49% of the Moon is Illuminated
Feb 6
Waxing Crescent
Feb 6
First Quarter
Feb 14
Full
Feb 22
Last Quarter
Mar 1
New

Hourly Weather History & Observations

Time (CST) Temp. Windchill Dew Point Humidity Pressure Visibility Wind Dir Wind Speed Gust Speed Precip Events Conditions
12:56 AM -6.0 °F -22.6 °F -14.1 °F 68% 30.71 in 10.0 mi West 9.2 mph - N/A   Clear
1:56 AM -7.1 °F -23.9 °F -15.0 °F 68% 30.69 in 10.0 mi West 9.2 mph - N/A   Clear
2:56 AM -9.0 °F -25.2 °F -15.0 °F 75% 30.68 in 10.0 mi West 8.1 mph - N/A   Clear
3:56 AM -9.0 °F -27.4 °F -16.1 °F 71% 30.67 in 10.0 mi West 10.4 mph - N/A   Clear
4:56 AM -9.0 °F -25.2 °F -16.1 °F 71% 30.68 in 10.0 mi West 8.1 mph - N/A   Clear
5:56 AM -9.9 °F -28.6 °F -17.0 °F 71% 30.68 in 10.0 mi West 10.4 mph - N/A   Clear
6:56 AM -9.9 °F -28.6 °F -17.0 °F 71% 30.69 in 10.0 mi West 10.4 mph - N/A   Clear
7:56 AM -9.0 °F -25.2 °F -17.0 °F 68% 30.67 in 10.0 mi WNW 8.1 mph - N/A   Scattered Clouds
8:56 AM -7.1 °F -25.0 °F -15.0 °F 68% 30.68 in 10.0 mi West 10.4 mph - N/A   Overcast
9:56 AM -4.0 °F -22.1 °F -14.1 °F 62% 30.67 in 10.0 mi WNW 11.5 mph - N/A   Clear
10:56 AM -0.0 °F -13.0 °F -9.9 °F 63% 30.65 in 10.0 mi West 6.9 mph - N/A   Clear
11:56 AM 3.9 °F -10.4 °F -9.0 °F 55% 30.62 in 10.0 mi WNW 9.2 mph - N/A   Partly Cloudy
12:56 PM 5.0 °F -12.3 °F -8.0 °F 55% 30.58 in 10.0 mi West 13.8 mph - N/A   Mostly Cloudy
1:43 PM 5.0 °F -12.3 °F -5.1 °F 63% 30.43 in 2.0 mi WNW 13.8 mph - 0.00 in Snow Light Snow
1:56 PM 6.1 °F -10.2 °F -4.0 °F 63% 30.55 in 5.0 mi West 12.7 mph - 0.00 in Snow Light Snow
2:11 PM 6.1 °F -10.2 °F -5.1 °F 60% 30.41 in 10.0 mi West 12.7 mph - 0.00 in   Overcast
2:21 PM 6.1 °F -9.5 °F -5.1 °F 60% 30.41 in 10.0 mi WNW 11.5 mph - 0.00 in   Overcast
2:56 PM 7.0 °F -9.1 °F -5.1 °F 58% 30.53 in 10.0 mi West 12.7 mph - 0.00 in   Scattered Clouds
3:56 PM 8.1 °F -7.0 °F -4.0 °F 58% 30.51 in 10.0 mi West 11.5 mph - N/A   Mostly Cloudy
4:07 PM 8.1 °F -7.7 °F -5.1 °F 55% 30.38 in 10.0 mi West 12.7 mph - N/A   Scattered Clouds
4:56 PM 7.0 °F -7.5 °F -6.0 °F 55% 30.49 in 10.0 mi West 10.4 mph - N/A   Clear
5:56 PM 3.0 °F -9.3 °F -7.1 °F 63% 30.48 in 10.0 mi West 6.9 mph - N/A   Clear
6:56 PM -0.0 °F -9.9 °F -9.0 °F 66% 30.49 in 10.0 mi SW 4.6 mph - N/A   Clear
7:56 PM -2.9 °F -16.5 °F -9.9 °F 72% 30.49 in 10.0 mi SW 6.9 mph - N/A   Clear
8:56 PM -5.1 °F -21.5 °F -11.9 °F 72% 30.47 in 10.0 mi SW 9.2 mph - N/A   Clear
9:56 PM -0.9 °F -14.1 °F -9.0 °F 69% 30.46 in 10.0 mi SSW 6.9 mph - N/A   Clear
10:56 PM -0.9 °F -18.3 °F -9.0 °F 69% 30.45 in 10.0 mi SW 11.5 mph - N/A   Clear
11:56 PM -0.9 °F -17.4 °F -9.0 °F 69% 30.43 in 10.0 mi SW 10.4 mph - N/A   Clear